Tracking 25405 objects as of 27-Jan-2022
HD Live streaming from Space Station
objects crossing your sky now

GP-B

Track GP-B now!
10-day predictions
GP-B is classified as:


NORAD ID: 28230
Int'l Code: 2004-014A
Perigee: 638.6 km
Apogee: 641.3 km
Inclination: 89.8 °
Period: 97.4 minutes
Semi major axis: 7010 km
RCS: 10.7347 m2 (large)
Launch date: April 20, 2004
Source: United States (US)
Launch site: AIR FORCE WESTERN TEST RANGE (AFWTR)
aabbcc
Your satellite tracking list
Your tracking list is empty




NASA's NSSDC Master Catalog

Two Line Element Set (TLE):
1 28230U 04014A   22026.66076682  .00000218  00000-0  27321-4 0  9997
2 28230  89.8126  84.9913 0001889  91.5918 268.5522 14.78896539958017
Source of the keplerian elements: AFSPC